TimeCST,TemperatureF,Dew PointF,Humidity,Sea Level PressureIn,VisibilityMPH,Wind Direction,Wind SpeedMPH,Gust SpeedMPH,PrecipitationIn,Events,Conditions,WindDirDegrees,DateUTC
12:08 AM,59.0,57.2,94,30.11,10.0,ENE,5.8,-,N/A,Rain-Thunderstorm,Rain,60,2013-02-11 06:08:00
12:43 AM,59.0,57.2,94,30.10,2.0,NE,5.8,-,N/A,Rain-Thunderstorm,Heavy Thunderstorms and Rain,40,2013-02-11 06:43:00
12:53 AM,59.0,57.9,96,30.12,3.0,NW,18.4,-,N/A,Rain-Thunderstorm,Heavy Rain,310,2013-02-11 06:53:00
1:03 AM,59.0,59.0,100,30.10,2.0,NE,9.2,-,N/A,Rain-Thunderstorm,Heavy Rain,40,2013-02-11 07:03:00
1:12 AM,59.0,59.0,100,30.10,6.0,ENE,8.1,-,N/A,Rain-Thunderstorm,Rain,70,2013-02-11 07:12:00
1:20 AM,60.8,59.0,94,30.11,7.0,Calm,Calm,-,N/A,Rain-Thunderstorm,Rain,0,2013-02-11 07:20:00
1:53 AM,60.1,59.0,96,30.09,7.0,East,3.5,-,N/A,Rain,Heavy Rain,90,2013-02-11 07:53:00
2:08 AM,60.8,59.0,94,30.08,10.0,East,6.9,-,N/A,Rain-Thunderstorm,Light Rain,80,2013-02-11 08:08:00
2:53 AM,60.1,59.0,96,30.08,2.5,ESE,6.9,-,N/A,Rain-Thunderstorm,Heavy Thunderstorms and Rain,120,2013-02-11 08:53:00
3:00 AM,60.8,59.0,94,30.09,3.0,ESE,5.8,-,N/A,Rain-Thunderstorm,Heavy Rain,120,2013-02-11 09:00:00
3:14 AM,60.8,60.8,100,30.08,10.0,ESE,4.6,-,N/A,Rain,Light Rain,120,2013-02-11 09:14:00
3:42 AM,60.8,60.8,100,30.09,10.0,ESE,3.5,-,N/A,,Mostly Cloudy,120,2013-02-11 09:42:00
3:53 AM,60.1,59.0,96,30.08,10.0,SE,3.5,-,N/A,,Overcast,140,2013-02-11 09:53:00
4:23 AM,60.8,60.8,100,30.09,6.0,SE,4.6,-,N/A,Rain,Rain,140,2013-02-11 10:23:00
4:31 AM,60.8,60.8,100,30.08,4.0,SE,6.9,-,N/A,Rain-Thunderstorm,Heavy Thunderstorms and Rain,140,2013-02-11 10:31:00
4:38 AM,60.8,60.8,100,30.09,1.8,SE,11.5,-,N/A,Rain-Thunderstorm,Heavy Thunderstorms and Rain,140,2013-02-11 10:38:00
4:48 AM,62.6,62.6,100,30.09,3.0,South,8.1,-,N/A,Rain-Thunderstorm,Thunderstorms and Rain,170,2013-02-11 10:48:00
4:53 AM,63.0,62.1,97,30.08,5.0,South,4.6,-,N/A,Rain-Thunderstorm,Heavy Thunderstorms and Rain,180,2013-02-11 10:53:00
5:30 AM,62.6,60.8,94,30.10,10.0,Calm,Calm,-,N/A,Thunderstorm,Mostly Cloudy,0,2013-02-11 11:30:00
5:38 AM,62.6,60.8,94,30.10,10.0,Calm,Calm,-,N/A,,Mostly Cloudy,0,2013-02-11 11:38:00
5:53 AM,63.0,61.0,93,30.09,10.0,SSW,3.5,-,N/A,,Mostly Cloudy,200,2013-02-11 11:53:00
6:04 AM,62.6,62.6,100,30.11,10.0,SSW,3.5,-,N/A,,Overcast,210,2013-02-11 12:04:00
6:43 AM,64.4,62.6,94,30.11,3.0,South,5.8,-,N/A,Rain,Heavy Rain,180,2013-02-11 12:43:00
6:46 AM,64.4,62.6,94,30.11,2.5,South,5.8,-,N/A,Rain,Heavy Rain,180,2013-02-11 12:46:00
6:51 AM,64.4,64.4,100,30.10,1.8,SSE,3.5,-,N/A,Rain,Heavy Rain,150,2013-02-11 12:51:00
6:53 AM,64.0,64.0,100,30.09,1.8,SSE,5.8,-,N/A,Rain,Heavy Rain,150,2013-02-11 12:53:00
7:12 AM,64.4,62.6,94,30.12,2.5,Calm,Calm,-,N/A,Rain,Light Rain,0,2013-02-11 13:12:00
7:14 AM,64.4,64.4,100,30.12,3.0,Calm,Calm,-,N/A,Rain,Heavy Rain,0,2013-02-11 13:14:00
7:21 AM,64.4,64.4,100,30.12,2.0,NE,3.5,-,N/A,Rain,Heavy Rain,40,2013-02-11 13:21:00
7:29 AM,64.4,62.6,94,30.12,3.0,North,4.6,-,N/A,Rain,Light Rain,10,2013-02-11 13:29:00
7:53 AM,63.0,63.0,100,30.12,6.0,ESE,4.6,-,N/A,Rain,Rain,120,2013-02-11 13:53:00
8:03 AM,64.4,62.6,94,30.13,1.8,SSE,4.6,-,N/A,Rain,Heavy Rain,150,2013-02-11 14:03:00
8:14 AM,64.4,62.6,94,30.12,0.5,ESE,11.5,-,N/A,Fog-Rain,Heavy Rain,120,2013-02-11 14:14:00
8:22 AM,64.4,62.6,94,30.13,2.0,ESE,3.5,-,N/A,Rain,Rain,110,2013-02-11 14:22:00
8:30 AM,64.4,62.6,94,30.13,10.0,North,8.1,-,N/A,Rain,Light Rain,360,2013-02-11 14:30:00
8:43 AM,64.4,62.6,94,30.12,5.0,ENE,6.9,-,N/A,Rain,Heavy Rain,70,2013-02-11 14:43:00
8:51 AM,64.4,62.6,94,30.14,1.5,Calm,Calm,-,N/A,Rain,Heavy Rain,0,2013-02-11 14:51:00
8:53 AM,64.0,63.0,96,30.13,1.2,East,3.5,-,N/A,Rain,Heavy Rain,90,2013-02-11 14:53:00
9:02 AM,64.4,62.6,94,30.15,0.8,ESE,3.5,-,N/A,Rain,Heavy Rain,110,2013-02-11 15:02:00
9:13 AM,64.4,62.6,94,30.14,2.5,Calm,Calm,-,N/A,Rain,Rain,0,2013-02-11 15:13:00
9:18 AM,64.4,62.6,94,30.14,7.0,ESE,4.6,-,N/A,Rain,Light Rain,120,2013-02-11 15:18:00
9:46 AM,64.4,62.6,94,30.14,1.8,SE,4.6,-,N/A,Rain,Heavy Rain,140,2013-02-11 15:46:00
9:53 AM,64.0,64.0,100,30.13,1.8,South,3.5,-,N/A,Rain,Heavy Rain,180,2013-02-11 15:53:00
9:57 AM,64.4,64.4,100,30.14,3.0,South,5.8,-,N/A,Rain,Light Rain,170,2013-02-11 15:57:00
10:12 AM,64.4,64.4,100,30.15,1.5,SSE,4.6,-,N/A,Rain,Heavy Rain,160,2013-02-11 16:12:00
10:37 AM,64.4,64.4,100,30.14,0.8,South,5.8,-,N/A,Rain,Heavy Rain,190,2013-02-11 16:37:00
10:44 AM,64.4,64.4,100,30.13,2.0,SW,5.8,-,N/A,Rain,Light Rain,220,2013-02-11 16:44:00
10:53 AM,64.9,64.0,97,30.13,10.0,NNW,13.8,-,N/A,Rain,Light Rain,330,2013-02-11 16:53:00
11:49 AM,64.4,64.4,100,30.13,10.0,NNW,9.2,-,N/A,Rain,Light Rain,340,2013-02-11 17:49:00
11:53 AM,64.9,64.0,97,30.12,10.0,NNW,13.8,-,N/A,Rain,Light Rain,340,2013-02-11 17:53:00
12:49 PM,66.2,62.6,88,30.12,10.0,North,11.5,20.7,N/A,,Overcast,350,2013-02-11 18:49:00
12:53 PM,66.9,63.0,87,30.11,10.0,North,11.5,20.7,N/A,,Overcast,360,2013-02-11 18:53:00
1:00 PM,66.2,62.6,88,30.12,10.0,North,13.8,-,N/A,,Overcast,10,2013-02-11 19:00:00
1:30 PM,64.4,59.0,83,30.13,10.0,North,8.1,-,N/A,,Overcast,350,2013-02-11 19:30:00
1:37 PM,64.4,59.0,83,30.12,10.0,North,11.5,-,N/A,,Overcast,360,2013-02-11 19:37:00
1:53 PM,64.0,59.0,84,30.11,10.0,North,10.4,-,N/A,,Overcast,360,2013-02-11 19:53:00
2:33 PM,64.4,59.0,83,30.12,10.0,North,9.2,-,N/A,,Overcast,350,2013-02-11 20:33:00
2:41 PM,64.4,59.0,83,30.11,10.0,North,8.1,-,N/A,,Overcast,360,2013-02-11 20:41:00
2:53 PM,64.0,60.1,87,30.12,10.0,NNW,12.7,-,N/A,,Overcast,340,2013-02-11 20:53:00
3:01 PM,62.6,60.8,94,30.09,10.0,North,12.7,-,N/A,,Overcast,360,2013-02-11 21:01:00
3:53 PM,63.0,60.1,90,30.12,8.0,North,8.1,-,N/A,Rain,Rain,350,2013-02-11 21:53:00
4:53 PM,61.0,57.0,87,30.11,10.0,North,8.1,-,N/A,,Overcast,10,2013-02-11 22:53:00
5:53 PM,59.0,55.9,90,30.11,10.0,NNE,11.5,-,N/A,Rain,Light Rain,30,2013-02-11 23:53:00
6:53 PM,57.9,55.0,90,30.12,9.0,NE,8.1,-,N/A,Rain,Rain,50,2013-02-12 00:53:00
7:53 PM,57.0,55.9,96,30.14,10.0,NE,9.2,-,N/A,Rain,Light Rain,50,2013-02-12 01:53:00
8:53 PM,57.0,55.9,96,30.14,10.0,ENE,4.6,-,N/A,Rain,Light Rain,60,2013-02-12 02:53:00
9:53 PM,57.9,55.9,93,30.10,10.0,East,6.9,-,N/A,,Overcast,100,2013-02-12 03:53:00
10:53 PM,57.9,55.9,93,30.11,10.0,ESE,3.5,-,N/A,,Overcast,120,2013-02-12 04:53:00
11:53 PM,57.9,57.0,97,30.10,10.0,NNE,4.6,-,N/A,,Overcast,30,2013-02-12 05:53:00